Total_Precipitation_Accumulation
0.10 0.18 0.21 0.23 0.21 0.19 0.14 0.12 0.18 0.27 0.43 0.58 0.70 0.93 0.82 0.80 0.87 0.95 0.83 0.77 0.69 0.75 0.84 0.99 1.00 0.94 0.97 1.04 1.10 1.25 1.24 1.21 1.27 1.38 1.42 1.47 1.49 1.52 1.58 1.61 1.60 1.77 1.80 1.90
0.11 0.14 0.15 0.17 0.19 0.16 0.12 0.10 0.11 0.21 0.44 0.63 0.74 0.81 0.79 0.68 0.73 0.94 0.85 0.76 0.75 0.85 1.01 1.02 0.92 0.89 0.92 0.90 0.98 1.15 1.24 1.35 1.44 1.46 1.40 1.47 1.51 1.52 1.53 1.58 1.65 1.75 1.81 1.93
0.21 0.17 0.19 0.26 0.22 0.19 0.16 0.14 0.15 0.28 0.45 0.62 0.78 0.73 0.80 0.75 0.70 0.69 0.67 0.68 0.75 0.84 0.91 0.96 0.97 0.92 0.87 0.81 0.94 1.24 1.33 1.36 1.55 1.66 1.57 1.62 1.65 1.64 1.61 1.61 1.74 1.82 1.95 2.02
0.28 0.31 0.38 0.31 0.26 0.25 0.27 0.28 0.26 0.30 0.43 0.65 0.85 0.80 0.77 0.78 0.76 0.69 0.56 0.64 0.75 0.78 0.79 0.84 0.88 0.86 0.84 0.90 0.98 1.24 1.45 1.53 1.78 1.94 1.82 1.81 1.80 1.82 1.85 1.90 1.92 2.02 2.06 1.98
0.43 0.45 0.48 0.41 0.38 0.40 0.48 0.59 0.50 0.51 0.65 0.71 0.70 0.74 0.81 0.76 0.70 0.64 0.63 0.68 0.73 0.81 0.87 0.97 1.06 1.05 1.03 1.13 1.26 1.45 1.63 1.75 1.98 2.20 2.32 2.27 2.12 2.18 2.25 2.22 2.18 2.24 2.26 2.21
0.59 0.65 0.74 0.69 0.56 0.51 0.66 1.07 0.87 0.71 0.74 0.76 0.77 0.98 0.99 0.72 0.63 0.61 0.64 0.73 0.88 1.04 1.05 1.11 1.24 1.18 1.21 1.36 1.61 1.77 1.80 1.83 1.99 2.19 2.29 2.26 2.27 2.46 2.57 2.47 2.36 2.37 2.27 2.14
0.66 0.77 0.77 0.69 0.61 0.65 1.17 1.57 1.12 0.95 0.96 1.01 1.01 0.98 0.84 0.76 0.78 0.70 0.67 0.77 0.83 0.86 1.01 1.14 1.27 1.35 1.48 1.55 1.67 1.74 1.77 1.80 1.92 2.15 2.41 2.37 2.39 2.48 2.56 2.56 2.54 2.54 2.44 2.30
0.80 1.03 1.16 0.76 0.68 1.04 1.42 1.29 1.33 1.30 1.27 1.22 1.06 0.89 0.78 0.77 0.82 0.75 0.74 0.80 0.80 0.80 0.92 1.12 1.33 1.55 1.66 1.65 1.69 1.79 1.78 1.75 1.84 2.11 2.24 2.29 2.43 2.47 2.57 2.67 2.64 2.60 2.56 2.37
1.08 1.29 1.18 0.94 1.02 1.08 1.16 1.28 1.33 1.26 1.27 1.24 1.18 1.06 0.95 0.90 0.87 0.85 0.91 0.90 0.91 0.92 1.00 1.14 1.32 1.56 1.76 1.79 1.77 1.69 1.64 1.62 1.71 1.88 1.97 2.12 2.23 2.18 2.23 2.34 2.33 2.36 2.36 2.29
1.48 1.48 1.30 1.16 1.09 1.07 1.08 1.14 1.10 1.05 1.01 1.00 1.00 0.98 0.96 0.97 1.01 1.03 1.08 1.05 1.05 1.10 1.14 1.20 1.30 1.49 1.67 1.68 1.69 1.67 1.58 1.53 1.64 1.85 1.96 2.04 2.09 2.08 2.13 2.18 2.24 2.31 2.32 2.26
1.87 1.84 1.65 1.50 1.31 1.25 1.13 1.13 1.12 1.03 0.99 0.94 0.86 0.86 0.87 0.84 0.88 0.95 1.05 1.08 1.08 1.13 1.19 1.22 1.27 1.46 1.60 1.63 1.68 1.73 1.68 1.63 1.72 1.83 1.92 2.09 2.15 2.17 2.17 2.16 2.13 2.12 2.11 2.06
2.06 1.87 1.75 1.71 1.38 1.33 1.39 1.27 1.15 1.14 1.10 1.00 0.87 0.83 0.84 0.82 0.84 0.90 1.00 1.13 1.18 1.27 1.27 1.24 1.25 1.38 1.50 1.67 1.82 1.86 1.82 1.78 1.74 1.70 1.78 1.85 1.89 1.85 1.80 1.74 1.73 1.67 1.65 1.57
1.46 1.51 1.60 1.71 1.54 1.36 1.33 1.26 1.19 1.17 1.14 1.05 0.95 0.89 0.79 0.75 0.82 0.90 1.00 1.14 1.28 1.39 1.31 1.27 1.31 1.39 1.48 1.61 1.82 1.93 1.86 1.74 1.63 1.56 1.56 1.57 1.66 1.74 1.79 1.67 1.57 1.47 1.40 1.29
1.47 1.58 1.70 1.66 1.67 1.61 1.39 1.28 1.18 1.13 1.09 1.02 0.96 0.91 0.85 0.84 0.84 0.94 1.10 1.18 1.18 1.24 1.25 1.22 1.23 1.31 1.42 1.57 1.81 1.94 1.86 1.75 1.56 1.46 1.45 1.44 1.54 1.63 1.66 1.67 1.62 1.42 1.26 1.16
1.67 1.65 1.64 1.55 1.54 1.61 1.57 1.49 1.36 1.23 1.12 1.08 1.04 1.03 0.96 0.91 0.90 0.97 1.08 1.23 1.34 1.34 1.25 1.23 1.25 1.29 1.35 1.48 1.64 1.79 1.83 1.73 1.60 1.55 1.54 1.43 1.34 1.37 1.41 1.46 1.52 1.44 1.25 1.17
1.61 1.50 1.49 1.54 1.57 1.51 1.47 1.51 1.44 1.29 1.08 1.03 1.08 1.06 0.99 0.96 0.99 1.06 1.15 1.29 1.54 1.68 1.55 1.38 1.31 1.28 1.31 1.44 1.52 1.51 1.54 1.53 1.48 1.48 1.48 1.41 1.34 1.33 1.39 1.45 1.51 1.46 1.32 1.22
1.43 1.34 1.34 1.40 1.46 1.50 1.47 1.40 1.34 1.24 1.13 1.08 1.07 1.03 0.99 1.01 1.11 1.27 1.37 1.43 1.48 1.47 1.47 1.48 1.39 1.31 1.36 1.46 1.53 1.45 1.34 1.29 1.23 1.22 1.24 1.25 1.24 1.29 1.41 1.48 1.51 1.41 1.21 1.08
1.11 1.13 1.20 1.23 1.27 1.41 1.44 1.31 1.21 1.15 1.12 1.12 1.10 1.07 1.06 1.10 1.32 1.56 1.60 1.53 1.51 1.39 1.29 1.31 1.33 1.33 1.43 1.50 1.56 1.54 1.39 1.23 1.09 1.04 1.07 1.11 1.20 1.30 1.36 1.36 1.29 1.22 1.11 1.02
0.87 0.92 0.99 1.05 1.11 1.18 1.25 1.26 1.25 1.15 1.06 1.08 1.17 1.22 1.23 1.24 1.42 1.67 1.73 1.73 1.71 1.55 1.29 1.16 1.20 1.22 1.31 1.39 1.47 1.43 1.21 1.02 0.86 0.82 0.86 0.97 1.13 1.31 1.34 1.25 1.14 1.09 1.07 1.03
0.82 0.80 0.83 0.89 0.93 0.97 1.04 1.08 1.07 1.11 1.10 1.10 1.16 1.21 1.30 1.36 1.52 1.72 1.83 1.86 1.73 1.56 1.35 1.16 1.07 1.04 1.08 1.23 1.33 1.28 1.12 0.95 0.82 0.76 0.79 0.89 1.07 1.27 1.28 1.15 1.09 1.12 1.11 1.10
0.80 0.77 0.79 0.85 0.89 0.87 0.90 0.94 0.96 1.05 1.14 1.15 1.24 1.35 1.39 1.38 1.50 1.75 1.97 1.96 1.65 1.35 1.19 1.15 1.02 0.92 0.95 1.13 1.18 1.12 1.06 0.97 0.86 0.85 0.89 1.03 1.22 1.31 1.22 1.11 1.06 1.05 1.05 1.13
0.88 0.85 0.82 0.83 0.89 0.89 0.89 0.94 0.98 1.05 1.13 1.13 1.23 1.36 1.40 1.49 1.49 1.49 1.58 1.74 1.59 1.35 1.09 0.95 0.91 0.95 1.02 1.11 1.09 1.03 1.03 1.01 0.95 0.95 1.03 1.16 1.25 1.26 1.15 1.08 1.11 1.07 1.04 1.08
0.93 0.88 0.86 0.83 0.87 0.91 0.87 0.92 0.98 1.08 1.19 1.18 1.18 1.25 1.37 1.48 1.48 1.53 1.47 1.34 1.33 1.29 1.06 0.91 0.89 0.95 1.02 1.01 1.03 1.01 1.05 1.02 0.95 0.95 1.03 1.14 1.19 1.19 1.18 1.15 1.15 1.12 1.10 1.08
0.89 0.86 0.86 0.87 0.89 0.96 1.01 0.98 0.99 1.06 1.14 1.08 1.04 1.04 1.17 1.32 1.28 1.22 1.30 1.36 1.31 1.26 1.08 1.00 0.94 0.90 0.92 0.90 0.95 1.02 1.07 1.00 0.92 0.89 0.93 1.00 1.07 1.14 1.25 1.28 1.25 1.18 1.12 1.08
0.93 0.90 0.87 0.94 1.05 1.15 1.14 1.10 1.13 1.15 1.16 1.09 1.02 0.97 1.00 1.18 1.27 1.15 1.15 1.19 1.19 1.14 1.04 1.00 0.96 1.00 0.98 0.99 0.97 0.99 0.95 0.85 0.81 0.81 0.88 0.99 1.03 1.07 1.13 1.15 1.11 1.12 1.12 1.12
1.03 1.00 0.98 1.01 1.07 1.13 1.15 1.26 1.36 1.35 1.36 1.33 1.16 0.96 0.92 1.00 1.06 1.10 1.14 1.13 1.14 1.16 1.03 0.94 0.91 0.96 1.00 1.07 1.04 0.93 0.83 0.78 0.77 0.77 0.82 0.91 0.96 1.02 1.06 1.06 1.03 1.06 1.08 1.07
1.03 1.01 1.02 1.05 1.08 1.06 1.06 1.16 1.28 1.39 1.52 1.52 1.29 1.00 0.92 0.97 1.05 1.11 1.14 1.17 1.21 1.22 1.14 1.02 0.94 0.93 0.95 0.99 0.98 0.91 0.84 0.77 0.75 0.78 0.80 0.81 0.85 0.96 1.04 1.08 1.03 1.03 1.06 1.05